Weather in Verbovyy Log

Russia / Rostov Oblast     47°31′34″N   42°36′07″E
temp.,
°C
wind,
m/s
gust,
m/s
humid.,
%
clouds,
%
prec.,
mm/h
press.,
hPa
HPBL,
m
1 march, mon
mon100:000wsw349386 0.0 101990
03:00+1w359888 0.1 1020205
06:00+1wnw3598100 0.8 1021262
09:00+1w2498100 1.6 1023156
12:00+1wnw2496100 0.6 1024225
15:00+2wnw2396100 0.9 1024229
18:00+1n2398100 0.5 1026170
21:000ne2397100 0.7 1027153
2 march, tue
tue200:00−1nne229390 0.1 102836
03:00−2nnw229392 0.2 102865
06:00−2wsw349427 0.0 102793
09:00+1wsw587837 0.0 1027694
12:00+4wsw7106657 0.0 10241219
15:00+5wsw9126376 0.0 10211288
18:00+2wsw7146994 0.0 1019819
21:00+1wsw8167597 0.0 1017793
3 march, wed
wed300:00+1wsw91783100 0.0 1015711
03:00+1wsw101596100 0.1 1013889
06:00+1w81397100 2.4 1012617
09:00+1wnw61097100 4.1 1013487
12:00+2nw7977100 0.5 1015973
15:00+3nw8106999 0.6 10161305
18:00+1nw6117095 0.2 1018708
21:00−1nw5117465 0.2 1021587
4 march, thu
thu400:00−2nw410750 0.0 1023607
03:00−2w47760 0.0 1024280
06:00−2wsw48770 0.0 1024265
09:00+1wsw711630 0.0 1024762
12:00+5wsw811520 0.0 10231127
15:00+6wsw811530 0.0 10211137
18:00+2sw511720 0.0 1020219
21:00+1sw614770 0.0 1020384
5 march, fri
fri500:000sw614760 0.0 1019380
03:000sw614810 0.0 1018452
06:000sw6148967 0.0 1018467
09:00+4wsw8147748 0.0 1018786
12:00+7wsw912540 0.0 10171127
15:00+8wsw811560 0.0 10171237
18:00+5sw49722 0.0 1017212
21:00+3sw46814 0.0 1018120